Weather History for Perry, IA

Change the Weather History Date:

Monday, March 11, 2013

  Actual Average Record
Temperature  
Mean Temperature 22 °F -  
Max Temperature 27 °F 45 °F 73 °F (1967)
Min Temperature 17 °F 23 °F -2 °F (1969)
Degree Days  
Heating Degree Days 42    
Moisture  
Dew Point 22 °F    
Average Humidity 88    
Maximum Humidity 96    
Minimum Humidity 79    
Precipitation  
Precipitation 0.00 in - - ()
Sea Level Pressure  
Sea Level Pressure 29.83 in    
Wind  
Wind Speed 18 mph (NW)    
Max Wind Speed 23 mph    
Max Gust Speed 29 mph    
Visibility 7 miles    
Events Snow    
Averages and records for this station are not official NWS values.
T = Trace of Precipitation, MM = Missing Value Source: NWS Daily Summary

Daily Weather History Graph

Daily Weather History Graph

Search for Another Location

Airport:

Trip Planner

Search our weather history database for the weather conditions in past years. The results will help you decide how hot, cold, wet, or windy it might be!

Date:

Astronomy

Mar. 11, 2013 Rise Set
Actual Time 7:34 AM CDT 7:18 PM CDT
Civil Twilight 7:07 AM CDT 7:46 PM CDT
Nautical Twilight 6:34 AM CDT 8:19 PM CDT
Astronomical Twilight 6:02 AM CDT 8:51 PM CDT
Moon 7:08 AM CDT (3/11) 7:32 PM CDT (3/11)
Length of Visible Light 12h 39m
Length of Day
11h 44m
Waning Crescent, 0% of the Moon is Illuminated
Mar 11
Waning Crescent
Mar 11
New
Mar 19
First Quarter
Mar 27
Full
Apr 2
Last Quarter

Hourly Weather History & Observations

Time (CDT) Temp. Windchill Dew Point Humidity Pressure Visibility Wind Dir Wind Speed Gust Speed Precip Events Conditions
12:15 AM 27.5 °F 13.9 °F 26.2 °F 95% 29.79 in 2.0 mi NNW 20.7 mph 27.6 mph N/A Snow Light Snow
12:35 AM 27.5 °F 14.2 °F 26.1 °F 94% 29.79 in 3.0 mi NNW 19.6 mph 25.3 mph N/A   Overcast
12:55 AM 27.5 °F 13.9 °F 26.2 °F 95% 29.79 in 4.0 mi NNW 20.7 mph 28.8 mph N/A   Overcast
1:15 AM 27.5 °F 13.2 °F 26.1 °F 94% 29.78 in 4.0 mi NNW 23.0 mph 27.6 mph N/A Snow Light Snow
1:35 AM 27.5 °F 13.5 °F 25.7 °F 93% 29.79 in 4.0 mi NNW 21.9 mph 27.6 mph N/A Snow Light Snow
1:55 AM 27.1 °F 13.8 °F 25.7 °F 94% 29.79 in 1.8 mi NNW 19.6 mph - N/A Snow Light Snow
2:15 AM 26.6 °F 13.4 °F 25.7 °F 96% 29.79 in 1.2 mi NNW 18.4 mph 26.5 mph N/A Snow Light Snow
2:35 AM 26.4 °F 12.8 °F 25.3 °F 96% 29.79 in 1.5 mi NNW 19.6 mph - N/A Snow Light Snow
2:55 AM 26.2 °F 13.0 °F 24.8 °F 94% 29.78 in 1.8 mi NNW 18.4 mph 25.3 mph N/A Snow Light Snow
3:15 AM 26.1 °F 12.0 °F 24.8 °F 95% 29.77 in 1.8 mi NNW 20.7 mph 26.5 mph N/A Snow Light Snow
3:35 AM 25.7 °F 10.8 °F 24.6 °F 96% 29.77 in 2.0 mi NNW 23.0 mph 27.6 mph N/A Snow Light Snow
3:55 AM 25.5 °F 12.4 °F 23.9 °F 94% 29.77 in 2.5 mi NNW 17.3 mph 26.5 mph N/A Snow Light Snow
4:15 AM 25.5 °F 12.9 °F 23.9 °F 94% 29.76 in 3.0 mi NNW 16.1 mph 26.5 mph N/A Snow Light Snow
4:35 AM 25.3 °F 12.2 °F 23.9 °F 94% 29.76 in 2.5 mi NNW 17.3 mph - N/A Snow Light Snow
4:55 AM 25.3 °F 11.4 °F 23.9 °F 94% 29.76 in 2.5 mi NNW 19.6 mph - N/A Snow Light Snow
5:15 AM 25.2 °F 11.2 °F 23.9 °F 95% 29.76 in 1.8 mi NNW 19.6 mph 26.5 mph N/A Snow Light Snow
5:35 AM 25.2 °F 11.6 °F 23.9 °F 95% 29.77 in 1.0 mi NNW 18.4 mph - N/A Snow Snow
5:55 AM 25.2 °F 11.2 °F 23.9 °F 95% 29.77 in 1.8 mi NNW 19.6 mph 24.2 mph N/A Snow Light Snow
6:15 AM 25.2 °F 11.2 °F 23.9 °F 95% 29.77 in 1.2 mi NNW 19.6 mph - N/A Snow Snow
6:35 AM 25.2 °F 11.6 °F 23.9 °F 95% 29.78 in 1.2 mi NNW 18.4 mph 24.2 mph N/A Snow Light Snow
6:55 AM 25.2 °F 12.0 °F 23.7 °F 94% 29.79 in 2.0 mi NNW 17.3 mph 25.3 mph N/A Snow Light Snow
7:15 AM 24.8 °F 10.3 °F 23.4 °F 94% 29.79 in 2.0 mi NNW 20.7 mph 26.5 mph N/A Snow Light Snow
7:35 AM 24.8 °F 11.1 °F 23.4 °F 94% 29.79 in 3.0 mi NNW 18.4 mph 24.2 mph N/A Snow Light Snow
7:55 AM 24.8 °F 11.1 °F 22.6 °F 91% 29.80 in 7.0 mi NNW 18.4 mph - N/A   Overcast
8:15 AM 24.8 °F 11.9 °F 22.5 °F 91% 29.80 in 10.0 mi NNW 16.1 mph - N/A   Overcast
8:35 AM 24.6 °F 11.3 °F 22.1 °F 90% 29.81 in 10.0 mi NNW 17.3 mph - N/A   Overcast
8:55 AM 24.8 °F 12.4 °F 22.1 °F 89% 29.82 in 10.0 mi NW 15.0 mph - N/A   Overcast
9:15 AM 24.8 °F 11.9 °F 22.1 °F 89% 29.82 in 10.0 mi NW 16.1 mph - N/A   Overcast
9:35 AM 24.8 °F 11.9 °F 22.1 °F 89% 29.83 in 10.0 mi NW 16.1 mph 24.2 mph N/A   Overcast
9:55 AM 25.2 °F 12.9 °F 22.1 °F 88% 29.82 in 10.0 mi NW 15.0 mph - N/A   Overcast
10:15 AM 25.3 °F 12.6 °F 22.1 °F 87% 29.82 in 10.0 mi NNW 16.1 mph 19.6 mph N/A   Overcast
10:35 AM 25.5 °F 13.8 °F 22.3 °F 88% 29.82 in 10.0 mi NW 13.8 mph 19.6 mph N/A   Overcast
10:55 AM 25.3 °F 12.2 °F 22.1 °F 87% 29.83 in 7.0 mi NW 17.3 mph 23.0 mph N/A   Overcast
11:15 AM 25.5 °F 13.8 °F 22.1 °F 87% 29.83 in 10.0 mi NW 13.8 mph 23.0 mph N/A   Overcast
11:35 AM 25.7 °F 13.5 °F 22.5 °F 88% 29.83 in 10.0 mi NW 15.0 mph 19.6 mph N/A   Overcast
11:55 AM 26.2 °F 13.8 °F 22.6 °F 86% 29.83 in 10.0 mi NW 16.1 mph - N/A   Overcast
12:15 PM 26.6 °F 14.7 °F 22.8 °F 86% 29.83 in 10.0 mi NW 15.0 mph - N/A   Overcast
12:35 PM 27.1 °F 15.4 °F 22.8 °F 84% 29.83 in 10.0 mi NW 15.0 mph 20.7 mph N/A   Overcast
12:55 PM 27.5 °F 15.4 °F 23.2 °F 84% 29.83 in 10.0 mi NW 16.1 mph - N/A   Overcast
1:15 PM 26.6 °F 13.8 °F 22.1 °F 83% 29.83 in 10.0 mi WNW 17.3 mph - N/A   Overcast
1:35 PM 26.2 °F 12.6 °F 21.7 °F 83% 29.84 in 10.0 mi WNW 19.6 mph 24.2 mph N/A   Overcast
1:55 PM 26.6 °F 13.4 °F 21.9 °F 82% 29.83 in 10.0 mi WNW 18.4 mph 23.0 mph N/A   Overcast
2:15 PM 26.6 °F 14.3 °F 21.6 °F 81% 29.83 in 10.0 mi WNW 16.1 mph 24.2 mph N/A   Overcast
2:35 PM 26.6 °F 14.7 °F 21.4 °F 81% 29.83 in 10.0 mi WNW 15.0 mph - N/A   Overcast
2:55 PM 26.6 °F 13.1 °F 21.6 °F 81% 29.83 in 10.0 mi WNW 19.6 mph - N/A   Overcast
3:15 PM 26.8 °F 14.1 °F 21.7 °F 81% 29.83 in 10.0 mi WNW 17.3 mph 21.9 mph N/A   Overcast
3:35 PM 26.6 °F 13.4 °F 21.6 °F 81% 29.83 in 10.0 mi WNW 18.4 mph 21.9 mph N/A   Overcast
3:55 PM 26.6 °F 14.7 °F 21.4 °F 81% 29.84 in 10.0 mi WNW 15.0 mph - N/A   Overcast
4:15 PM 26.6 °F 12.7 °F 21.6 °F 81% 29.85 in 10.0 mi WNW 20.7 mph - N/A   Overcast
4:35 PM 26.6 °F 13.1 °F 21.7 °F 82% 29.86 in 10.0 mi WNW 19.6 mph 23.0 mph N/A   Overcast
4:55 PM 26.6 °F 14.3 °F 21.4 °F 81% 29.86 in 10.0 mi WNW 16.1 mph 20.7 mph N/A   Overcast
5:15 PM 25.7 °F 13.5 °F 20.3 °F 80% 29.86 in 10.0 mi WNW 15.0 mph - N/A   Mostly Cloudy
5:35 PM 25.3 °F 13.6 °F 19.8 °F 79% 29.86 in 10.0 mi WNW 13.8 mph 19.6 mph N/A   Mostly Cloudy
6:15 PM 24.6 °F 12.2 °F 19.4 °F 81% 29.86 in 10.0 mi WNW 15.0 mph - N/A   Scattered Clouds
6:35 PM 25.3 °F 14.1 °F 20.3 °F 81% 29.86 in 10.0 mi WNW 12.7 mph 18.4 mph N/A   Mostly Cloudy
6:55 PM 24.1 °F 12.5 °F 19.6 °F 83% 29.87 in 10.0 mi WNW 12.7 mph - N/A   Scattered Clouds
7:15 PM 22.5 °F 11.1 °F 18.9 °F 86% 29.89 in 10.0 mi West 11.5 mph - N/A   Clear
7:35 PM 23.4 °F 11.6 °F 19.8 °F 86% 29.90 in 10.0 mi West 12.7 mph - N/A   Mostly Cloudy
7:55 PM 24.4 °F 11.9 °F 20.3 °F 84% 29.91 in 10.0 mi West 15.0 mph - N/A   Overcast
8:15 PM 24.6 °F 15.1 °F 21.2 °F 87% 29.91 in 10.0 mi West 9.2 mph - N/A   Overcast
8:35 PM 25.2 °F 15.7 °F 21.4 °F 86% 29.90 in 10.0 mi West 9.2 mph - N/A   Overcast
8:55 PM 25.5 °F 15.5 °F 21.7 °F 86% 29.91 in 10.0 mi West 10.4 mph - N/A   Overcast
9:15 PM 25.5 °F 14.3 °F 21.7 °F 86% 29.93 in 10.0 mi West 12.7 mph - N/A   Overcast
9:35 PM 24.8 °F 14.0 °F 21.2 °F 86% 29.92 in 10.0 mi West 11.5 mph - N/A   Overcast
9:55 PM 25.5 °F 15.5 °F 21.6 °F 85% 29.93 in 10.0 mi WNW 10.4 mph - N/A   Overcast
10:15 PM 25.2 °F 14.4 °F 20.8 °F 84% 29.93 in 10.0 mi West 11.5 mph - N/A   Overcast
10:35 PM 22.5 °F 11.1 °F 19.0 °F 87% 29.94 in 10.0 mi West 11.5 mph - N/A   Mostly Cloudy
10:55 PM 22.8 °F 12.2 °F 19.4 °F 87% 29.94 in 10.0 mi West 10.4 mph - N/A   Mostly Cloudy
11:15 PM 20.3 °F 9.8 °F 17.2 °F 88% 29.94 in 10.0 mi West 9.2 mph - N/A   Scattered Clouds
11:35 PM 18.1 °F 7.1 °F 15.4 °F 89% 29.94 in 10.0 mi West 9.2 mph - N/A   Clear
11:55 PM 17.6 °F 5.7 °F 14.7 °F 88% 29.94 in 10.0 mi West 10.4 mph - N/A   Clear